Overview Statistics Trail Chart Weather Telemetry Raw packets
 

This is the latest recevied weather packets stored in our database for station/object IW1RCO-13. If no packets are shown the sender has not sent any weather packets the latest 10 day(s).

<< 10 11 12 13 14 15 16 >>
Time Temp. Humidity Pressure Rain* Wind** Luminosity Snow
1788597872 23.89° C 71% 1019.7 hPa - - - -
1788597569 23.89° C 71% 1018.6 hPa - - - -
1788597272 23.33° C 70% 1018.9 hPa - - - -
1788596968 23.33° C 69% 1018.6 hPa - - - -
1788596672 23.33° C 67% 1019 hPa - - - -
1788596368 22.78° C 67% 1018.8 hPa - - - -
1788596071 22.78° C 68% 1018.9 hPa - - - -
1788595768 22.78° C 68% 1019.5 hPa - - - -
1788595471 22.78° C 67% 1019.2 hPa - - - -
1788595168 22.78° C 69% 1019.1 hPa - - - -
1788594871 22.78° C 67% 1019.5 hPa - - - -
1788594567 22.78° C 68% 1019.6 hPa - - - -
1788594271 22.78° C 68% 1019 hPa - - - -
1788593967 22.78° C 64% 1018.6 hPa - - - -
1788593670 22.78° C 66% 1019.6 hPa - - - -
1788593367 22.78° C 68% 1019.3 hPa - - - -
1788593070 22.78° C 68% 1019.4 hPa - - - -
1788592773 22.22° C 69% 1018.9 hPa - - - -
1788592470 22.22° C 69% 1019.2 hPa - - - -
1788590372 20.56° C 72% 1019.3 hPa - - - -
1788590069 20° C 71% 1018.9 hPa - - - -
1788589772 20° C 70% 1019.1 hPa - - - -
1788589468 19.44° C 70% 1019.5 hPa - - - -
1788589172 18.89° C 69% 1019.5 hPa - - - -
1788588868 18.33° C 68% 1018.6 hPa - - - -

* Rain since midnight (hover to see other rain measurements)
** Current wind speed in m/s (hover to see current wind gust speed)